アトラス彗星

C/2017 M4 ( ATLAS )

English version
Home page
Updated on November 10, 2019

---------------------------------------------------------------------

・ プロフィール

発見日 2017年6月21日
発見光度 18.3等
発見者 Asteroid Terrestrial-impact Last Alert System (ATLAS) Team

・ 写真集

・ 軌道要素

Epoch 2019 Feb. 6.0 TT = JDT 2458520.5
T 2019 Jan. 18.18671 TT                                 Williams
q   3.2518051            (2000.0)            P               Q
z  -0.0007186      Peri.  167.62097     -0.34653815     -0.32822191
 +/-0.0000003      Node    65.86770     -0.92164442     +0.29349682
e   1.0023369      Incl.  105.65761     -0.17459346     -0.89784742
From 1568 observations 2017 June 16-2019 Sept. 12, mean residual 0".5.

・ 星図

・ 光度変化

        m1 = 6.0 + 5 logΔ + 10.0 log r

---------------------------------------------------------------------

軌道要素はM.P.E.C. 2019-V116に掲載されたものです。
星図はステラナビゲータ Ver.10 (アストロアーツ) で作成したものです。
光度グラフはComet for Windowsで作成したものです。

---------------------------------------------------------------------

Copyright(C) Seiichi Yoshida (comet@aerith.net). All rights reserved.